Regional Weather Roundup
Issued by NWS

Home | Current Version | Previous Version | Text Only | Print | Product List | Glossary Off
Versions: 1 2 3 4 5 6 7 8 9 10 11 12 13 14 15 16 17 18 19 20 21 22 23 24 25 26 27 28 29 30 31 32 33 34 35 36 37 38 39 40 41 42 43 44 45 46 47 48 49 50

000
ASUS43 KLMK 241810
RWRKY
KENTUCKY REGIONAL WEATHER ROUNDUP
NATIONAL WEATHER SERVICE LOUISVILLE KY
100 PM EST TUE JAN 24 2017

NOTE "FAIR" INDICATES FEW OR NO CLOUDS BELOW 12,000 FEET
WITH NO SIGNIFICANT WEATHER AND/OR OBSTRUCTIONS TO VISIBILITY.

KYZ001>023-026-027-061>063-070>075-241900-
WESTERN AND SOUTH CENTRAL KENTUCKY

CITY           SKY/WX    TMP DP  RH WIND       PRES   REMARKS
PADUCAH        SUNNY     49  35  58 SE7       29.91S
HENDERSON      CLOUDY    45  36  70 S7        29.89F
OWENSBORO      CLOUDY    42  35  76 S9        29.91F
HOPKINSVILLE   MOSUNNY   47  35  61 SE6       29.90F
BOWLING GREEN  CLOUDY    44  34  67 E3        29.92F
GLASGOW        CLOUDY    42  33  72 CALM      29.90F
$$

KYZ024-025-028>034-038-045-046-053-241900-
NORTH CENTRAL KENTUCKY

CITY           SKY/WX    TMP DP  RH WIND       PRES   REMARKS
LOUISVILLE/SDF CLOUDY    45  32  60 W5        29.89F
LOUISVILLE/LOU CLOUDY    44  33  65 NW6       29.90F
FORT KNOX      CLOUDY    43  33  69 N3        29.87F
$$

KYZ035>037-039>044-047>052-055>060-089>105-241900-
NORTHEAST KENTUCKY

CITY           SKY/WX    TMP DP  RH WIND       PRES   REMARKS
LEXINGTON      CLOUDY    43  38  82 W12       29.88F
COVINGTON      CLOUDY    43  37  79 W13       29.85F
FRANKFORT      CLOUDY    45  35  68 W3        29.87F
$$

KYZ054-064>069-076>088-106>120-241900-
SOUTHEAST KENTUCKY

CITY           SKY/WX    TMP DP  RH WIND       PRES   REMARKS
JACKSON        LGT RAIN  40  38  93 VRB7      29.85F FOG
LONDON         CLOUDY    40  36  86 W8        29.88F WCI  34
SOMERSET       CLOUDY    41  34  75 W7        29.92F
MIDDLESBORO    CLOUDY    42  39  88 W6        29.89F
MONTICELLO     CLOUDY    41  35  79 W9        29.93F
$$





USA.gov is the U.S. government's official web portal to all federal, state and local government web resources and services.